Theta_e
333 335 335 336 334 334 333 333 333 332 332 331 331 331 330 330 329 328 327 327 327 327 327 326 326 326 326 326 326 326 325 325 325 324 323 322 321 321 320 319 318 317 316 314 313 312 311 310 309 306 302 296
330 332 334 334 334 334 334 333 332 331 330 331 330 330 329 328 327 327 326 325 326 326 326 326 326 326 326 327 326 324 324 323 322 321 321 320 320 319 318 317 316 315 314 313 311 310 309 308 307 305 302 295
326 328 331 332 332 332 332 332 331 330 330 330 329 329 328 327 325 324 324 324 325 325 324 324 324 325 326 326 325 323 322 321 320 319 318 318 318 317 317 316 314 313 312 310 310 309 307 305 303 301 298 294
319 325 325 328 330 330 331 330 330 329 328 326 326 326 324 322 318 318 317 320 319 322 322 323 320 324 323 323 323 322 321 320 319 318 316 315 315 314 314 314 313 311 310 309 308 307 305 302 299 293 292 292
316 320 323 324 325 326 328 328 328 327 324 320 319 317 315 313 309 307 309 309 308 315 310 317 319 322 322 322 321 320 320 319 318 316 315 313 312 310 308 307 308 308 308 307 306 304 301 298 292 292 292 292
314 315 321 316 318 318 322 322 322 320 314 313 308 311 307 304 306 304 302 304 310 306 309 312 317 320 321 320 319 318 318 318 317 316 314 313 311 309 306 301 292 294 302 304 303 301 298 292 291 291 291 291
312 313 314 312 314 315 317 316 314 310 309 305 304 301 300 301 301 300 300 301 304 305 311 310 315 319 319 318 317 317 317 316 315 314 313 311 309 306 302 292 290 289 289 291 297 296 291 289 290 290 290 291
310 310 310 311 311 312 312 309 307 305 303 302 300 298 297 297 298 298 299 308 309 309 304 309 313 316 316 316 316 315 313 313 312 311 310 308 305 299 294 290 289 290 289 289 289 289 289 288 289 289 290 289
309 309 308 308 308 308 306 305 303 302 300 299 297 296 296 295 297 297 299 299 299 298 298 295 295 296 297 296 296 299 292 293 294 292 290 292 293 290 291 290 289 289 289 290 289 289 288 289 288 288 289 288
309 308 308 306 306 305 303 303 301 299 298 296 295 294 295 296 296 297 297 295 294 294 292 291 290 290 290 290 291 292 289 289 289 289 289 289 289 289 289 289 289 290 290 288 288 288 288 288 287 288 287 287
306 306 307 306 304 304 302 300 300 297 295 295 294 294 295 295 295 295 294 293 292 291 290 289 288 288 288 289 288 290 289 289 289 288 288 288 288 288 288 288 288 288 287 287 288 288 287 287 287 287 287 287
305 304 304 303 304 303 302 300 299 297 295 294 294 294 295 296 295 294 293 292 290 290 288 288 288 288 287 288 288 289 289 289 288 288 288 288 287 288 288 288 287 287 287 286 286 287 287 287 287 287 286 287
304 303 302 301 301 301 302 299 299 297 295 294 294 294 295 295 294 292 292 291 290 288 289 288 288 287 287 288 288 289 288 288 288 287 287 287 287 287 287 286 287 287 286 286 286 286 286 286 286 286 286 286
303 302 301 301 301 300 301 298 297 295 294 294 293 293 294 294 294 293 292 291 289 289 288 287 287 288 287 287 288 288 288 288 287 287 286 286 287 287 286 287 288 287 286 286 286 286 286 286 286 286 286 286
303 301 301 301 300 298 299 297 296 295 294 293 293 294 293 293 293 292 291 290 289 288 288 287 287 287 287 287 287 287 288 287 287 286 287 287 286 286 286 286 287 285 286 285 285 286 285 285 286 286 286 286
302 301 301 300 298 298 297 296 295 295 294 294 294 293 293 293 292 292 290 290 289 289 288 287 286 286 286 286 287 287 287 287 287 286 286 286 286 286 286 286 285 285 284 284 285 285 285 285 285 285 286 286
302 301 300 299 298 297 296 295 294 294 294 293 294 293 293 292 292 292 291 290 290 291 287 287 286 286 287 287 287 287 287 287 287 287 287 287 286 285 285 285 285 286 284 284 284 284 285 284 285 285 285 285
301 300 299 298 297 297 295 295 294 294 294 293 293 293 292 292 292 291 290 290 289 289 287 286 286 286 286 286 286 287 287 286 286 286 286 286 287 289 285 284 284 284 284 284 283 284 284 284 284 284 284 285
300 299 298 297 296 295 295 294 294 294 294 293 293 293 292 292 292 291 290 290 290 288 287 286 285 285 285 286 286 286 286 286 286 286 286 285 284 283 284 284 286 284 284 284 284 284 285 284 285 284 284 284
299 298 297 296 296 294 294 294 293 293 293 293 292 293 292 291 292 291 290 290 290 289 287 287 286 285 285 286 286 286 285 286 285 286 286 284 284 283 283 284 283 283 283 284 284 284 283 283 286 283 283 284
297 296 295 294 294 293 294 294 293 293 293 292 291 292 292 291 292 291 290 290 289 289 288 287 286 285 285 286 285 285 284 285 286 286 285 284 285 283 283 283 282 283 283 283 283 283 282 283 284 283 283 285
296 295 294 293 292 293 293 293 293 292 292 292 292 291 292 291 292 291 290 289 289 289 288 287 286 285 285 286 284 284 284 284 285 284 284 283 282 282 283 282 282 282 283 283 283 283 282 282 282 282 283 285
295 293 292 290 291 291 291 292 291 291 291 291 291 291 292 291 291 291 290 289 289 288 288 287 286 285 285 285 284 284 284 284 285 284 282 283 283 283 282 282 282 282 283 282 283 283 282 281 282 282 285 283
294 292 292 291 289 290 291 291 291 290 291 291 291 292 291 291 291 291 290 289 289 289 288 287 286 285 285 285 284 284 284 284 284 283 283 282 283 283 283 283 281 281 282 280 280 283 281 281 282 284 283 282
294 292 291 291 291 291 291 291 291 291 291 291 291 291 291 291 291 291 290 289 289 288 289 287 286 285 284 284 284 284 284 285 284 283 283 284 284 282 280 281 280 281 280 280 280 279 280 281 282 286 283 281
294 294 293 292 292 292 292 291 291 290 291 291 291 291 291 291 291 290 290 289 289 288 288 286 286 285 285 284 284 284 283 283 285 283 283 284 281 280 280 280 280 281 280 280 278 280 280 279 279 283 281 281
294 294 294 293 292 293 291 292 291 291 291 291 290 290 290 290 290 290 289 289 289 288 288 287 286 286 285 284 285 284 283 284 283 283 283 283 282 280 280 281 281 280 278 278 279 279 279 278 279 282 279 279
294 294 292 291 289 290 289 289 290 289 289 289 289 288 289 289 290 289 289 289 289 289 288 287 286 286 285 284 285 284 283 283 283 282 283 282 282 282 280 279 280 282 280 278 280 280 278 276 278 277 278 277
293 292 290 288 288 288 287 288 288 287 286 288 289 289 288 289 289 289 289 289 289 289 288 287 287 286 285 284 284 284 284 284 284 283 284 283 282 281 282 279 279 281 280 279 281 280 276 276 279 277 277 276
293 292 291 289 288 287 288 287 287 288 288 287 288 289 289 289 289 289 289 289 288 288 288 287 286 286 285 284 284 284 284 284 283 282 283 282 282 281 280 281 280 279 281 280 281 278 277 279 278 276 275 277
293 292 291 291 291 291 290 290 289 291 290 289 290 290 289 289 288 289 289 288 288 288 288 287 286 286 285 285 284 284 283 283 283 283 283 283 281 281 282 281 279 280 279 279 279 279 278 280 279 278 278 276
Wind_Speed
11 12 13 13 15 14 15 14 14 14 14 14 14 14 15 14 13 14 14 14 14 13 13 13 13 13 13 13 13 13 13 13 13 13 13 13 12 12 12 13 13 13 13 14 14 14 14 14 13 12 9 6
11 11 13 12 13 13 13 13 15 15 15 15 15 15 15 13 13 14 14 14 14 14 14 14 14 14 14 14 14 14 14 14 13 13 13 13 13 13 13 13 13 13 13 14 14 13 13 13 13 12 10 5
7 11 11 12 13 12 12 12 13 15 14 13 14 14 13 12 11 11 12 12 14 14 13 13 13 14 15 15 15 15 14 14 14 14 13 13 13 13 13 13 13 13 13 13 13 13 12 12 11 11 7 5
5 9 10 11 11 12 11 12 12 13 12 12 12 12 11 11 8 8 7 10 8 12 13 11 7 13 14 15 15 15 15 15 14 14 14 13 13 13 13 13 13 13 13 12 12 12 11 10 9 6 5 4
5 6 9 8 10 11 12 12 12 12 11 10 10 9 9 8 5 5 5 6 4 7 5 8 9 11 14 14 15 15 14 14 14 14 14 14 14 13 13 12 12 12 12 12 12 11 11 9 6 5 5 5
5 5 7 5 6 6 8 10 10 9 6 7 6 9 7 5 5 5 4 4 6 4 5 6 9 11 13 14 14 14 14 14 14 14 13 13 14 13 12 11 6 6 8 11 10 10 9 6 5 5 5 5
5 6 6 5 6 6 7 7 6 6 6 5 6 5 5 5 5 5 4 4 4 4 7 5 8 10 12 14 14 14 14 14 14 14 14 14 13 12 11 6 6 5 6 5 8 7 6 5 5 4 5 4
6 6 6 6 6 6 6 6 6 6 6 6 6 6 6 6 5 5 6 6 8 7 5 6 7 10 10 11 10 11 9 11 13 14 14 14 12 8 5 5 5 5 5 6 4 5 5 5 4 5 4 4
7 6 6 6 6 6 6 6 6 6 6 6 6 6 6 5 5 5 5 4 5 5 4 4 4 4 4 4 5 7 6 6 6 6 6 6 6 5 5 5 5 4 5 4 4 5 4 4 3 4 4 4
6 7 7 7 7 6 6 7 6 6 6 6 7 6 6 6 6 6 6 5 5 5 5 5 5 4 4 4 5 4 6 5 5 5 5 6 6 5 5 5 4 3 3 4 4 4 4 4 4 4 4 4
7 7 7 7 7 8 7 6 7 7 6 7 7 7 7 8 7 6 6 6 5 5 5 5 4 5 3 5 5 4 6 5 4 6 6 6 6 4 5 5 4 4 3 3 4 4 3 3 4 4 4 4
8 7 7 7 6 7 7 7 7 7 7 7 7 7 7 7 7 8 7 6 6 6 4 5 4 4 4 4 4 3 6 7 5 5 6 5 4 5 4 5 3 3 3 3 3 4 3 3 4 4 4 4
8 7 7 7 7 8 7 8 7 7 7 7 7 6 7 7 8 7 7 7 6 6 5 5 5 5 5 4 4 4 4 5 6 5 5 5 5 4 4 3 3 3 3 3 3 3 3 3 3 3 3 3
9 9 9 9 9 8 7 8 7 6 7 7 8 8 7 8 7 8 9 8 6 7 6 5 4 5 5 5 5 4 5 3 6 6 5 5 4 5 3 3 3 3 3 3 3 3 3 3 3 3 3 3
11 9 10 10 8 8 9 8 7 7 7 7 7 8 8 7 7 7 7 8 8 6 6 6 6 5 4 4 4 3 4 3 4 5 5 6 6 5 5 4 3 4 4 3 3 3 4 3 3 3 3 3
11 12 12 10 9 9 8 8 8 8 8 8 8 7 8 7 8 7 7 8 8 7 7 7 6 5 5 5 4 4 4 5 3 4 4 4 4 4 4 5 3 2 4 4 4 3 3 2 3 3 2 3
13 11 10 10 10 9 9 9 8 9 9 9 8 7 8 8 8 7 9 8 9 7 7 6 6 6 5 5 5 3 4 4 4 5 5 5 3 4 4 4 3 2 3 4 3 3 3 2 3 2 2 2
11 12 11 10 9 9 9 9 9 10 8 8 8 8 8 8 8 8 7 8 7 7 7 6 6 6 6 5 4 4 5 6 5 6 5 5 5 3 4 5 2 3 4 3 3 4 2 3 2 2 2 2
14 12 11 11 10 10 10 9 10 9 8 8 8 8 8 9 8 8 8 8 9 8 7 7 6 6 6 5 4 5 5 5 5 5 6 6 6 4 4 4 3 3 4 3 5 3 2 3 2 2 3 2
14 13 12 10 10 9 10 9 10 9 10 9 8 8 8 8 8 8 9 9 8 8 7 7 7 6 5 5 5 5 5 4 6 5 5 3 5 7 3 4 3 2 3 2 3 2 3 2 2 3 3 3
11 11 11 11 11 11 10 10 10 9 8 8 9 8 9 9 9 9 9 9 9 9 8 7 7 6 6 5 6 6 5 5 4 5 5 3 0 2 5 4 4 1 1 3 3 2 3 3 3 3 3 2
13 11 9 8 8 9 10 10 8 8 8 9 9 8 9 10 10 9 9 9 9 8 8 7 7 6 6 6 6 6 5 5 4 3 4 5 2 2 4 4 4 3 1 2 3 4 4 4 4 3 4 3
9 8 6 5 6 7 8 7 7 7 8 8 8 10 10 11 10 10 10 10 10 9 9 8 7 7 7 6 6 6 6 5 4 4 3 5 4 2 2 4 3 3 3 3 4 5 4 3 3 3 3 3
10 9 10 10 6 6 9 8 8 7 9 8 10 11 11 11 11 10 11 11 10 10 9 9 8 8 7 7 7 8 8 7 7 8 6 5 6 6 3 3 1 1 4 4 6 4 4 4 3 4 4 4
13 14 11 8 12 14 11 11 11 10 10 11 11 11 11 11 10 11 11 10 11 11 10 9 8 8 7 7 7 8 9 7 7 5 5 6 3 5 4 1 1 1 2 5 3 3 5 5 3 1 2 4
13 14 16 17 17 15 13 13 13 13 11 12 10 10 11 10 10 11 11 10 10 10 11 10 9 9 10 9 8 7 4 5 5 5 5 6 4 1 3 2 1 1 3 2 2 4 1 4 3 2 1 2
15 12 9 10 7 10 7 7 7 7 8 8 9 9 9 9 9 10 10 11 11 11 11 11 10 10 9 9 8 8 8 7 8 8 9 9 8 5 1 2 1 1 2 5 2 2 4 1 1 0 1 1
10 9 6 3 3 4 4 5 4 4 5 6 7 9 10 10 11 11 11 11 11 10 11 12 12 10 10 10 9 10 10 10 10 9 8 8 6 7 5 2 1 0 1 5 8 1 1 1 1 2 2 2
10 9 7 6 6 6 6 5 6 5 5 8 8 8 10 11 10 12 12 12 13 12 13 11 11 11 11 10 10 9 9 10 12 12 11 10 8 9 9 7 2 1 1 1 1 7 5 2 0 4 1 1
11 12 12 12 10 10 9 9 10 14 16 11 13 15 10 10 13 13 12 11 12 12 11 12 12 11 11 11 10 10 10 9 7 8 10 11 10 9 5 8 6 3 0 0 1 0 1 3 3 4 3 2
11 11 12 15 16 15 16 17 14 12 10 13 11 9 11 11 9 10 12 11 11 11 11 11 11 11 11 11 11 9 8 9 11 11 11 8 8 8 7 7 6 10 6 2 1 2 3 4 2 5 7 5
Wind_Direction
188 186 192 193 190 191 190 188 185 183 182 181 178 177 176 168 163 161 158 155 153 149 146 143 138 135 131 129 126 121 118 113 108 104 100 96 93 89 85 82 78 76 73 70 66 62 59 57 55 53 51 48
185 188 187 189 189 189 187 186 185 185 183 181 177 175 173 164 162 160 158 156 153 150 146 140 138 136 132 128 124 120 116 113 110 107 104 100 97 94 90 85 82 78 75 72 68 63 58 54 52 49 49 49
189 189 189 188 187 186 183 181 183 184 183 175 176 173 165 159 158 158 155 154 153 148 142 140 139 137 133 130 126 122 120 118 115 112 107 103 99 95 90 87 83 79 76 73 70 67 63 57 54 50 43 39
181 190 190 188 183 180 180 182 181 178 172 168 168 163 156 154 151 142 140 139 138 141 143 140 138 138 136 133 129 127 124 122 120 115 111 107 101 95 90 85 81 79 76 72 68 65 62 59 57 51 46 40
179 185 181 181 176 176 177 180 175 171 162 160 156 145 140 129 120 118 116 110 115 115 119 137 139 137 137 132 130 127 124 121 119 116 112 109 104 99 92 84 76 75 76 72 69 65 61 57 51 45 46 40
176 179 171 167 171 172 175 176 170 160 148 138 129 128 125 126 127 122 121 121 117 124 125 126 136 138 135 131 127 126 124 120 117 114 111 107 103 98 91 85 74 62 63 68 69 67 65 58 54 45 44 43
178 177 166 168 169 170 168 167 150 142 138 134 135 130 132 131 128 129 128 128 128 129 128 126 128 132 133 131 128 125 123 121 117 113 110 105 100 92 84 73 72 70 65 54 56 55 52 55 47 46 43 45
179 178 168 168 167 166 158 147 145 142 142 141 141 141 139 137 138 132 137 139 134 126 121 120 116 122 122 119 110 108 108 110 112 108 103 99 91 81 74 74 66 68 61 59 52 51 50 51 42 41 38 35
183 175 164 170 169 163 155 147 146 148 148 150 148 147 146 148 142 143 143 133 122 116 112 102 93 88 94 95 98 93 97 89 83 81 87 82 80 78 82 79 69 69 66 56 55 56 49 56 50 46 38 31
175 165 176 177 175 160 159 156 155 154 157 156 158 155 153 148 142 146 139 136 136 128 126 122 122 118 115 118 120 116 115 109 112 103 102 104 96 87 88 85 78 66 79 76 64 60 51 49 46 41 35 30
175 186 181 174 173 166 173 163 160 168 168 170 164 162 162 155 157 152 149 147 148 147 139 139 142 146 144 140 136 147 127 117 111 113 108 103 100 95 89 82 76 73 64 69 75 63 58 49 46 41 33 24
184 183 178 181 176 181 169 166 176 174 175 166 171 170 170 162 161 158 156 160 156 159 144 151 151 146 143 142 138 133 126 122 112 108 107 110 106 104 101 106 99 90 84 75 80 84 67 57 49 43 33 27
186 179 180 179 184 187 176 179 180 175 166 173 174 176 171 164 160 163 160 161 163 147 156 151 149 152 150 140 143 129 120 127 130 123 126 123 123 115 114 109 111 107 95 93 91 95 80 67 59 47 36 28
184 185 186 190 190 183 178 186 177 169 178 178 172 178 180 176 168 169 166 161 155 157 162 159 151 148 153 150 148 138 143 148 137 142 131 126 126 128 129 126 142 128 119 96 89 84 80 63 56 46 40 27
193 182 195 192 185 180 188 179 171 180 182 179 184 180 175 175 173 164 161 159 159 159 158 160 158 159 150 150 165 155 147 143 146 142 146 149 149 147 143 138 146 147 119 108 78 68 72 61 57 42 25 29
192 193 195 188 184 191 186 170 180 182 183 187 186 177 178 176 172 165 164 160 161 162 161 164 163 159 160 176 169 163 154 153 146 143 134 129 132 141 135 129 128 143 116 92 77 74 71 64 66 48 30 36
196 192 190 188 193 189 180 180 180 185 189 189 185 178 178 176 170 170 165 167 165 163 162 158 159 166 178 174 169 162 156 145 139 130 131 124 128 118 119 113 101 109 94 83 63 73 67 75 59 46 52 46
194 194 192 192 190 185 181 185 185 191 188 185 183 181 179 176 175 170 167 160 162 156 157 160 167 170 178 173 168 159 151 153 157 146 135 139 119 112 112 103 94 96 65 42 64 63 54 71 62 53 65 53
198 192 192 188 189 187 186 185 189 189 184 184 184 177 180 179 176 171 168 167 160 161 161 164 169 177 180 163 162 164 173 157 155 148 141 142 118 103 91 92 77 82 89 67 53 37 44 47 48 49 64 60
195 193 191 190 187 186 185 186 192 189 188 185 175 180 180 181 176 172 171 167 162 160 167 170 177 178 162 168 163 169 167 156 158 151 136 140 141 121 107 107 70 52 83 71 65 37 49 39 55 56 51 58
194 190 190 189 188 188 185 190 193 190 181 178 179 181 180 180 180 175 172 170 167 162 168 171 173 170 167 164 168 166 169 165 166 153 141 142 174 122 146 134 125 64 78 73 71 54 54 37 47 53 46 54
190 188 183 185 186 186 190 195 192 185 178 184 181 178 186 180 180 176 174 171 169 167 169 170 169 163 164 165 165 164 165 167 154 140 144 132 86 122 125 136 133 139 127 79 72 62 50 32 48 38 43 37
178 169 171 164 171 183 191 195 192 180 184 186 180 188 184 179 182 178 176 173 169 165 167 167 168 167 170 165 165 161 163 159 160 149 151 142 116 85 90 127 155 152 135 77 71 68 46 43 43 33 56 52
174 172 177 179 167 184 201 192 184 187 192 182 190 191 183 185 184 179 177 173 170 167 167 169 173 170 166 169 165 168 170 176 178 170 154 152 137 124 81 45 67 93 108 72 70 73 50 45 50 72 69 64
178 180 181 184 195 200 190 188 187 190 194 192 196 189 188 185 184 178 174 174 170 174 169 170 165 163 170 172 175 180 189 179 170 168 158 146 133 132 119 82 22 240 125 117 66 21 53 41 26 33 74 61
186 190 189 185 192 193 185 183 187 197 195 197 192 189 188 186 182 177 178 174 175 172 170 169 171 174 176 175 182 182 165 167 168 158 158 157 105 32 132 149 197 200 125 40 142 148 17 10 354 23 22 21
194 191 189 191 190 189 186 199 203 198 189 180 185 186 184 183 181 178 179 177 177 173 178 175 172 182 173 177 170 166 173 177 180 179 175 181 157 131 56 130 188 148 201 139 129 111 90 14 48 324 350 349
185 178 170 151 108 142 133 166 155 153 154 174 166 184 183 188 183 181 182 178 180 180 179 178 180 173 175 179 179 177 174 181 186 182 185 188 189 153 134 170 187 108 189 143 138 79 107 188 115 325 263 300
164 146 135 118 90 99 88 79 135 145 189 189 188 184 192 192 181 184 184 183 185 182 182 181 179 177 180 177 181 179 182 186 191 188 187 182 176 190 155 178 168 191 71 119 274 143 110 69 66 218 212 48
166 172 167 160 159 168 177 181 180 195 196 182 190 200 186 186 191 187 187 184 185 187 180 182 182 179 176 180 179 186 190 187 176 189 188 193 189 190 207 149 155 132 152 134 83 192 132 159 171 180 224 127
172 176 182 186 188 186 187 193 205 200 186 187 195 185 188 192 187 190 185 187 186 187 184 181 181 182 182 182 185 184 180 186 194 192 196 183 191 196 162 141 145 162 169 111 24 51 75 85 80 130 132 199